Regional Weather Roundup
Issued by NWS Charleston, SC

Current Version | Previous Version | Text Only | Print | Product List | Glossary On
Versions: 1 2 3 4 5 6 7 8 9 10 11 12 13 14 15 16 17 18 19 20 21 22 23 24 25 26 27 28 29 30 31 32 33 34 35 36 37 38 39 40 41 42 43 44 45 46 47 48 49 50
527 ASUS42 KCHS 131413 RWRCHS REGIONAL WEATHER ROUNDUP NATIONAL WEATHER SERVICE CHARLESTON SC 900 AM EST SAT FEB 13 2016 NOTE: "FAIR" INDICATES FEW OR NO CLOUDS BELOW 12,000 FEET WITH NO SIGNIFICANT WEATHER AND/OR OBSTRUCTIONS TO VISIBILITY. NOT ALL STATIONS ARE QUALITY CONTROLLED BY THE NATIONAL WEATHER SERVICE. USE DATA WITH CAUTION...ESPECIALLY DEWPOINT OBSERVATIONS. SCZ027-030-031-034>040-042>050-131500- ...SOUTHEAST SOUTH CAROLINA... CITY SKY/WX TMP DP RH WIND PRES REMARKS N CHARLESTON SUNNY 41 30 65 N12 30.27R WATERFRONT PRK N/A 40 34 79 N7 30.10R WCI 35 MOUNT PLEASANT FAIR 39 30 70 N7 30.27R WCI 34 JOHNS ISLAND FAIR 43 34 70 N5 30.27R PINOPOLIS N/A 41 27 56 N14 30.18R MONCKS CORNER FAIR 37 21 52 N6 30.27R WCI 33 SUMMERVILLE NOT AVBL BEAUFORT MCAS MOSUNNY 44 31 60 N12 30.28R BEAUFORT ARPT FAIR 43 32 65 N10G17 30.28R HILTON HEAD IS SUNNY 45 30 57 N12G18 30.29R WALTERBORO SUNNY 41 32 70 N5 30.29R ALLENDALE FAIR 41 27 56 CALM 30.29R ...SOUTHERN MIDLANDS AND PEE DEE... CITY SKY/WX TMP DP RH WIND PRES REMARKS GEORGETOWN FAIR 36 28 75 N7 30.27R WCI 30 KINGSTREE FAIR 34 27 75 NW3 30.27R ORANGEBURG SUNNY 38 21 50 N15G22 30.28R WCI 29 BARNWELL FAIR 41 28 60 N10 30.29R AIKEN FAIR 34 23 64 N6 30.30R WCI 29 MANNING FAIR 36 18 48 N7 30.27R WCI 30 COLUMBIA SUNNY 38 15 39 N7G17 30.28R WCI 33 SUMTER SUNNY 36 21 54 NW9 30.25R WCI 29 FLORENCE SUNNY 34 24 67 N12 30.27R WCI 25 MYRTLE BEACH SUNNY 37 25 60 N12 30.27R WCI 30 N MYRTLE BEACH SUNNY 37 24 59 N13G21 30.25R WCI 29 $$ GAZ063-065-086>088-099>101-113>116-118-119-134>141-150-131500- ...SOUTHEAST GEORGIA... CITY SKY/WX TMP DP RH WIND PRES REMARKS SAVANNAH ARPT SUNNY 44 29 55 NW12 30.29R HUNTER AAF SUNNY 44 30 56 NW15G22 30.26R FORT STEWART SUNNY 45 25 45 NW13G21 30.27R STATESBORO SUNNY 44 24 44 NW12 30.29R SYLVANIA MOSUNNY 41 31 67 N13 30.30R CLAXTON FAIR 43 29 59 W16 30.30R ...CSRA...CENTRAL AND FAR SOUTHEAST GEORGIA... CITY SKY/WX TMP DP RH WIND PRES REMARKS THOMSON MOSUNNY 37 26 63 W8 30.33R WCI 31 AUGUSTA-BUSH MOSUNNY 39 24 55 NW9 30.29R WCI 33 AUGUSTA-DANIEL SUNNY 38 19 46 NW8G18 30.28R WCI 32 SWAINSBORO FAIR 37 23 56 NW10G17 30.31R WCI 30 VIDALIA SUNNY 41 25 52 NW9 30.30R EASTMAN FAIR 40 25 53 N9 30.35R WCI 35 HAZLEHURST FAIR 44 29 55 NW10G17 30.30R ALMA SUNNY 44 27 51 NW12 30.31R WAYCROSS SUNNY 49 32 52 N14 30.31R JESUP FAIR 46 32 57 NW12G17 30.29R BAXLEY FAIR 45 28 53 NW10G22 30.30R BRUNSWICK SUNNY 48 32 53 NW8 30.29R SAINT SIMONS SUNNY 47 30 51 NW12G24 30.27R $$ SCZ027-028-034-036>038-045-046-048>050-GAZ119-141-131500- ...LAKE AND SUPPLEMENTAL COASTAL OBSERVATIONS... STATION/POSITION TIME TEMP WIND PRES WAVE SWELL AIR SEA DIR/SP/G HT/PER HT/PER/DIR (UTC) (F) (DEG/KT/KT) (MB) (FT/S) (FT/S/D) WINYAH BAY NOT AVBL LAKE MURRAY 1300 34 330/ 3/ 6 1023.7R ACE BASIN NERRS NOT AVBL FORT PULASKI 1300 42 49 310/ 12/ 14 1024.7R SAPELO ISLAND 1300 45 330/ 9 1024.0S $$ ANZ835-935-AMZ111-154-330-350-352-354-370-450-454-472-131500- ...C-MAN AND BUOY OBSERVATIONS... STATION/POSITION TIME TEMP WIND PRES WAVE SWELL AIR SEA DIR/SP/G HT/PER HT/PER/DIR (UTC) (F) (DEG/KT/KT) (MB) (FT/S) (FT/S/D) BUOY 41004 1350 46 67 360/ 17/ 23 1023.2R 4/ 5 2/10 BUOY 41008 1350 47 52 340/ 19/ 23 1024.7R 3/ 4 FOLLY BEACH CMAN 1300 39 330/ 7/ 9 1024.1R CAPERS NEARSHORE 1308 41 340/ 16/ 19 1023.7R FRIPP NEARSHORE 1300 45 320/ 14/ 16 1023.5R STATION/POSITION TIME TEMP WIND PRES WAVE SWELL AIR SEA DIR/SP/G HT/PER HT/PER/DIR (UTC) (F) (DEG/KT/KT) (MB) (FT/S) (FT/S/D) 5E ST. MARYS GA 1321 56 N/A 2/ 4 FRYING PAN BUOY 1300 43 60 360/ 17/ 23 1022.5R BUOY 41025 1350 38 71 340/ 23/ 29 1021.1R 5/ 8 CAPE LOOKOUT NC NOT AVBL BUOY 41002 1350 59 68 310/ 19/ 25 N/A 10/ 9 5/160/14 BUOY 41010 1320 69 72 1021.0R ST AUGUSTINE FL 1400 53 57 340/ 17/ 18 1025.4R $$

USA.gov is the U.S. government's official web portal to all federal, state and local government web resources and services.